Regional Weather Roundup
Issued by NWS

Home | Current Version | Previous Version | Text Only | Print | Product List | Glossary Off
Versions: 1 2 3 4 5 6 7 8 9 10 11 12 13 14 15 16 17 18 19 20 21 22 23 24 25 26 27 28 29 30 31 32 33 34 35 36 37 38 39 40 41 42 43 44 45 46 47 48 49 50

000
ASUS45 KSLC 180110
RWRUT

UTAH REGIONAL WEATHER ROUNDUP
NATIONAL WEATHER SERVICE SALT LAKE CITY UT
600 PM MST WED DEC 17 2014

UTZ001>011-023>025-180200-

NORTHERN UTAH

CITY           SKY/WX    TMP DP  RH WIND       PRES   REMARKS
BRIGHAM CITY   MOCLDY    35  29  77 CALM      30.01S
HILL AFB       PTCLDY    36  29  77 SW2       29.99R
LOGAN          PTCLDY    35  28  75 S5        29.99R WCI  31
OGDEN          MOCLDY    35  30  82 W3        29.99R
PROVO AIRPORT  PTCLDY    36  28  75 VRB5      29.99R WCI  32
SALT LAKE CITY MOCLDY    36  29  75 CALM      30.00R
VERNAL         CLOUDY    26  22  84 N5        30.03S WCI  20
WENDOVER       CLOUDY    34  27  75 CALM      30.02R
HEBER CITY     MOCLDY    34  23  64 SW6       29.97R WCI  29
WEST JORDAN    CLEAR     34  32  93 SW3       30.00R

$$

UTZ012>022-026-027-180200-

SOUTHERN/CENTRAL UTAH

CITY           SKY/WX    TMP DP  RH WIND       PRES   REMARKS
BLANDING       CLOUDY    32  32 100 S3        30.07R
BRYCE CANYON   CLOUDY    27  22  81 NW9       30.00R WCI  18
CEDAR CITY     CLOUDY    35  32  88 S7        30.00R WCI  29
DELTA          CLOUDY    37  32  82 S5        30.01R WCI  34
MILFORD        LGT RAIN  39  31  72 S9        30.00R WCI  33
MOAB/CYNLANDS  LGT RAIN  36  34  92 W5        29.99R WCI  32
PRICE          MOCLDY    29  21  72 CALM      29.98R
ST GEORGE      MOCLDY    46  34  61 CALM      30.06R

$$

REGIONAL REPORTS     COLORADO/ARIZONA

CITY           SKY/WX    TMP DP  RH WIND       PRES   REMARKS
CRAIG, CO      CLOUDY    29  27  92 W5        30.00R WCI  24
GRAND JUNCTION CLOUDY    36  36 100 CALM      29.98R
RIFLE          CLOUDY    36  31  82 W3        29.97R
MONTROSE       CLOUDY    36  32  85 N7        29.99R WCI  30
CORTEZ         CLOUDY    34  34 100 CALM      30.01R
PAGE, AZ       PTCLDY    40  35  83 E3        30.03R
GRAND CANYON   LGT SNOW  33  31  92 W5        30.05R FOG     WCI  29
KINGMAN        CLOUDY    44  41  89 SW3       30.05S
FLAGSTAFF      CLOUDY    31  29  92 SW5       30.05R WCI  26

$$

REGIONAL REPORTS    NEVADA/IDAHO/WYOMING

CITY           SKY/WX    TMP DP  RH WIND       PRES   REMARKS
LAS VEGAS, NV  CLOUDY    52  43  71 S5        29.99R
ELY            CLOUDY    33  22  63 S5        29.99R WCI  29
ELKO           FOG       27  25  92 W3        30.01R VSB 1/2
POCATELLO, ID  CLEAR     32  29  88 N3        29.99R
BURLEY         PTCLDY    34  27  75 E9        29.97R WCI  27
EVANSTON, WY   MOCLDY    29  18  63 W8        29.97R WCI  21
ROCK SPRINGS   PTCLDY    22  16  78 S6        29.97S WCI  14
KEMMERER       CLOUDY    28  21  74 NW6       29.97R WCI  22

$$


USA.gov is the U.S. government's official web portal to all federal, state and local government web resources and services.